Hourly Data Report for April 20, 2021

KUGAARUK CLIMATE
NUNAVUT
Current Station Operator: ECCC - MSC

68°32'15.060" N
89°47'47.020" W
15.80 m
2303094
71407
NBB

Download Data

Hourly Data (April 2021)
Hourly Data Report for April 20, 2021
TIME
LST
Temp Definition
°C
Dew Point Definition
°C
Rel Hum Definition
%
Precip. Amount Definition
mm

Wind Dir Definition
10's deg

Wind Spd Definition
km/h
Visibility Definition
km
Stn Press Definition
kPa
Hmdx Definition


Wind Chill Definition


Weather Definition


00:00 -12.6 -14.8 83 0.0 22 14   101.20   -20 LegendNANA
01:00 -12.5 -14.6 84 0.0 22 13   101.14   -19 LegendNANA
02:00 -12.5 -14.7 83 0.0 23 12   101.08   -19 LegendNANA
03:00 -13.0 -15.3 83 0.0 0 1   101.06   -14 LegendNANA
04:00 -13.5 -15.5 85 0.0 8 7   101.04   -18 LegendNANA
05:00 -14.0 -16.2 83 0.0 6 10   101.05   -20 LegendNANA
06:00 -13.9 -16.4 82 0.0 6 12   101.01   -21 LegendNANA
07:00 -13.8 -17.3 75 0.0 11 15   101.02   -21 LegendNANA
08:00 -15.7 -19.3 74 0.0 7 16   101.04   -24 LegendNANA
09:00 -15.2 -19.0 73 0.0 7 10   101.02   -21 LegendNANA
10:00 -14.9 -18.5 74 0.0 6 15   101.02   -23 LegendNANA
11:00 -14.9 -18.9 72 0.0 11 13   101.05   -22 LegendNANA
12:00 -14.8 -18.7 72 0.0 12 17   101.05   -23 LegendNANA
13:00 -15.0 -19.0 72 0.0 6 13   101.03   -22 LegendNANA
14:00 -15.3 -19.1 73 0.0 7 14   101.04   -23 LegendNANA
15:00 -16.1 -19.8 73 0.0 6 10   101.05   -23 LegendNANA
16:00 -17.5 -21.1 73 0.0 7 9   101.03   -24 LegendNANA
17:00 -16.8 -19.2 81 0.0 12 11   101.00   -24 LegendNANA
18:00 -17.4 -20.1 80 0.0 13 17   100.97   -26 LegendNANA
19:00 -20.2 -22.6 81 0.0 9 7   100.94   -26 LegendNANA
20:00 -17.1 -19.1 85 0.0 14 16   100.86   -26 LegendNANA
21:00 -16.2 -19.1 78 0.0 15 20   100.78   -26 LegendNANA
22:00 -15.9 -18.9 77 0.0 18 16   100.72   -24 LegendNANA
23:00 -17.9 -20.2 82 0.0 5 12   100.68   -25 LegendNANA

Notes on Data Quality.

Legend

  • E = Estimated
  • M = Missing
  • NA = Not Available*
  • [empty] = Indicates an unobserved value
Date modified: